{"data":{"norad_id":41581,"intl_designator":"2016-035A","name":"INTELSAT 31 (IS-31)","alt_names":[],"object_type":"PAYLOAD","status":"ACTIVE","operator":null,"country":"ITSO","launch_date":"2016-06-09","launch_site_code":"TYMSC","launch_vehicle":null,"mission":null,"orbit_class":"UNKNOWN","rcs_meters":7.8945,"size_class":null,"mass_kg":null,"dimensions":null,"purposes":["comms"],"wikipedia_slug":null,"has_3d_model":false,"image_url":null,"decayed_at":null,"tle_current":{"epoch":"2026-09-19T03:22:05.826144Z","epoch_age_seconds":131843,"freshness":"FRESH","line1":"1 41581U 16035A   26262.14034521 -.00000155  00000+0  00000+0 0  9992","line2":"2 41581   0.0174 222.2960 0001310  34.6095  56.6393  1.00271754 37625","mean_motion":1.00271754,"eccentricity":0.000131,"inclination_deg":0.0174,"raan_deg":222.296,"arg_perigee_deg":34.6095,"mean_anomaly_deg":56.6393,"bstar":0,"rev_number":3762,"period_min":1436.0973480129,"perigee_km":35781.080070593,"apogee_km":35792.127232644,"semimajor_km":42164.740651618,"source":"CELESTRAK","updated_at":"2026-09-20T09:00:35.522434Z"}}}